Lid_Strength_Index
-0 -0 0 1 1 1 1 1 1 1 1 1 1 2 1 1 1 1 1 1 1 1 1 1 1 1 1 3 3 -1 -2 -2 -0 0 2 3 4 4 6 5 5 6 5 5 4 4 5
0 0 0 1 1 1 1 1 2 1 1 2 2 2 2 2 1 1 1 1 1 1 1 1 1 1 2 5 -0 -1 -0 -0 0 1 2 2 3 3 5 5 6 5 5 5 5 5 4
0 0 0 1 1 1 1 1 1 1 1 2 2 2 2 2 1 1 1 1 1 1 1 1 1 0 2 3 -0 -1 -0 0 0 1 2 2 2 3 4 5 4 5 6 6 5 5 6
1 1 1 1 1 1 1 1 1 1 2 2 2 2 2 2 2 1 1 1 1 1 1 1 1 1 4 -0 -1 0 -0 1 0 0 1 1 1 3 4 4 5 6 6 9 6 5 5
1 1 1 1 1 1 1 1 2 2 2 2 2 2 2 2 2 2 1 1 1 1 1 1 1 2 4 -0 1 0 0 2 1 1 1 1 2 4 4 7 8 7 10 9 8 6 6
1 0 1 1 1 1 1 1 2 2 2 2 2 2 2 2 2 2 1 1 1 1 -0 -0 1 3 2 4 1 1 -0 1 2 2 3 3 4 6 6 7 11 10 10 9 9 7 6
1 1 0 0 0 1 0 1 2 2 2 2 2 2 2 2 1 2 0 0 2 3 2 4 4 5 3 2 0 2 1 2 2 3 6 4 7 9 7 7 7 8 8 9 8 6 7
1 1 1 1 0 0 0 1 2 2 2 2 2 2 2 2 1 1 -0 2 2 2 5 3 3 3 3 2 4 3 2 4 4 7 5 6 8 7 6 6 7 8 9 9 7 6 7
1 1 1 1 1 1 1 1 2 2 2 2 2 2 2 2 2 1 1 2 -1 0 5 4 3 4 4 2 5 5 3 4 6 7 7 8 7 6 7 7 8 9 9 9 9 7 7
2 2 2 1 1 1 1 1 2 2 2 2 2 2 3 3 1 0 2 -0 -1 -0 8 7 5 4 3 3 5 3 3 4 5 7 7 7 6 7 8 8 8 10 7 8 9 10 12
2 2 2 1 1 2 2 2 2 2 2 3 3 2 2 3 0 2 1 -1 -1 2 17 6 5 2 3 5 5 5 3 4 6 7 7 8 8 9 8 8 7 9 7 8 8 10 10
2 2 2 2 2 2 2 2 2 2 2 3 3 2 1 -0 -1 -0 -1 -1 1 11 17 8 5 6 6 5 6 5 4 4 5 7 7 7 6 7 8 7 6 6 8 8 8 10 15
2 2 2 2 2 2 2 2 2 2 2 3 3 3 0 -1 2 -1 -1 2 11 15 7 8 8 6 7 7 7 6 7 7 8 11 10 7 8 6 6 8 6 7 10 16 18 17 17
1 1 2 2 2 2 2 2 2 2 2 3 3 5 1 -1 -1 -1 1 7 14 9 9 6 6 7 8 7 7 7 7 8 7 8 10 11 13 8 6 8 9 9 10 16 20 19 17
1 1 1 1 2 2 2 2 2 2 3 3 4 -0 -0 -1 -2 -1 5 12 11 8 7 7 7 8 9 7 8 7 8 8 8 7 11 12 11 6 7 7 7 9 12 8 13 16 16
1 1 2 1 1 2 2 2 2 2 3 3 1 1 2 -2 -2 2 8 10 8 6 6 6 9 8 10 9 8 8 9 7 8 6 6 9 13 8 7 6 6 8 7 13 13 20 20
1 2 1 1 1 2 2 2 2 3 3 4 1 4 1 -2 -1 4 10 8 7 6 6 7 8 9 8 9 8 9 9 7 6 7 6 8 10 11 8 9 10 9 11 11 10 13 18
2 2 2 1 1 2 2 2 2 3 3 3 2 7 -0 -1 6 6 8 6 8 6 5 6 6 7 8 8 9 9 9 8 5 6 9 7 10 14 12 7 6 8 9 10 16 16 14
2 2 2 1 1 1 2 2 2 2 3 1 4 4 -0 1 10 11 6 6 6 6 6 7 7 6 6 8 11 9 8 6 6 7 8 7 11 15 13 9 8 10 9 9 10 13 16
2 2 2 1 1 1 1 2 2 2 2 1 3 9 5 3 4 6 7 8 8 5 6 6 7 6 7 9 7 9 8 6 5 6 7 7 10 13 16 13 10 12 10 9 10 15 14
2 2 2 1 1 1 1 2 2 2 2 1 3 6 5 9 7 6 6 7 8 9 6 6 7 7 8 11 10 9 8 7 6 7 6 7 13 11 10 10 10 11 11 10 11 11 14
2 2 2 2 1 1 1 2 2 2 3 2 5 5 4 5 5 6 7 7 8 7 7 8 8 7 7 9 9 10 8 8 9 7 8 7 13 12 14 10 10 12 11 10 10 10 10
2 2 2 2 2 2 1 2 2 2 3 2 1 1 4 7 6 8 7 7 7 6 6 5 6 7 10 7 6 5 5 6 6 8 9 10 12 14 16 12 12 16 12 10 10 9 9
2 2 2 2 2 2 3 3 2 3 3 0 1 2 7 10 7 7 6 6 6 6 7 6 5 9 5 3 4 5 6 6 6 7 6 11 13 13 16 15 19 10 7 8 9 8 8
3 2 2 2 2 2 3 3 1 2 2 0 -0 2 5 12 7 6 6 6 6 5 6 6 5 4 3 5 10 13 12 12 11 7 7 7 11 15 17 16 13 11 9 9 10 10 7
3 3 2 2 2 3 3 2 2 2 2 -0 -0 -0 3 10 9 5 6 6 8 8 8 6 3 2 4 8 11 15 15 12 12 10 7 8 10 13 15 18 19 11 8 6 6 13 8
4 3 3 3 3 3 3 3 3 3 3 0 0 -1 2 7 4 4 6 7 5 6 8 6 6 7 4 11 14 14 14 10 13 15 14 14 13 15 15 16 14 8 6 6 15 14 7
4 4 4 3 3 3 3 4 4 4 3 1 0 -1 2 5 4 3 3 5 5 5 8 6 7 7 9 13 13 12 14 12 12 10 12 13 14 15 15 16 18 6 7 13 9 7 6
4 4 4 4 4 3 4 4 4 3 3 3 2 -2 -1 3 4 1 1 1 2 2 5 5 7 6 7 10 11 11 13 13 13 15 8 13 11 12 11 12 7 6 6 5 5 6 6